User: anonymous   Login
Location: Mentone
(34.5413°N, 85.5351°W)
Time: 15:38:35
(UTC-05:00)
Language:

NOSS 2-2 (E) - Orbit

View from above orbital plane
View from above orbital plane
View from above satellite
View from above satellite

Ground track
Ground track

The orbit data is extracted from the following two-line orbital elements,

1 21809U 91076E   16243.81119041 0.00000130  00000-0  48554-4 0    01
2 21809  63.3570 128.3184 0718000  19.0792 340.9208 13.41285132    03
Epoch (UTC): 30 August 2016 19:28:06
Eccentricity: 0.0718000
inclination: 63.3570°
perigee height: 567 km
apogee height: 1642 km
right ascension of ascending node: 128.3184°
argument of perigee: 19.0792°
revolutions per day: 13.41285132
mean anomaly at epoch: 340.9208°
orbit number at epoch: 0

The dashed part of the orbit path shows where the satellite is in the earth's shadow,  

DLR